Theta_e
320 321 320 309 303 302 302 301 301 301 301 301 301 303 305 307 307 310 310 311 309 309 309 309 311 312 313 312 311 312 307 307 309 307 309 307 307 309 310 310 310 311 311 311 311
321 320 321 318 312 304 302 301 301 301 301 301 302 302 304 307 308 308 311 310 309 309 308 310 311 312 312 311 311 308 306 307 305 305 307 306 307 309 309 309 309 310 311 311 311
319 320 320 320 319 316 307 302 301 301 301 301 301 302 304 306 308 310 309 311 309 309 309 310 311 312 311 311 310 308 307 307 308 308 307 306 307 309 308 307 310 310 310 311 311
319 320 319 320 320 321 320 317 304 301 300 301 301 302 304 306 310 312 312 310 308 308 309 310 311 312 309 309 310 309 308 307 309 310 307 307 309 309 309 309 310 310 311 311 309
318 318 319 318 320 320 321 321 319 303 300 300 301 301 304 307 308 312 312 310 309 308 309 310 310 311 309 308 309 308 308 309 309 310 309 309 309 308 309 310 310 310 310 310 308
317 317 317 317 318 319 319 320 321 310 301 300 300 301 304 305 308 311 311 310 309 308 308 310 310 311 309 309 308 308 309 309 309 309 309 308 308 309 309 310 310 310 310 309 308
313 315 316 317 318 318 317 319 320 321 309 301 300 301 302 304 308 310 310 309 309 308 308 309 310 311 310 309 310 309 309 309 308 309 309 309 306 306 308 309 309 310 310 309 308
312 312 313 316 317 316 317 317 320 320 320 308 301 300 302 304 306 308 310 310 309 308 308 309 311 311 310 310 309 309 307 306 307 308 309 306 305 303 308 308 309 309 310 309 307
308 311 313 313 313 315 317 317 319 319 319 316 308 301 303 305 307 309 309 309 309 309 310 310 311 310 310 307 305 304 305 306 307 308 308 305 304 304 308 308 309 309 309 309 308
303 305 311 313 313 315 316 316 318 318 318 316 308 310 309 306 307 308 309 309 309 310 312 311 310 306 305 304 306 306 308 308 307 308 308 308 307 306 307 308 309 309 309 309 309
303 304 305 308 312 313 313 316 317 313 313 317 307 306 306 307 308 308 309 309 309 310 309 309 307 306 306 305 306 305 307 310 309 308 309 307 307 307 306 306 308 309 309 310 310
302 303 303 306 309 310 313 314 316 311 314 317 315 306 305 308 308 308 309 310 309 308 306 307 307 306 305 306 308 308 308 307 307 307 307 302 305 305 303 304 307 307 309 310 310
300 302 302 302 306 308 312 313 315 314 311 314 316 313 306 305 306 308 309 311 309 308 306 306 307 305 307 307 308 307 307 305 306 306 305 304 305 303 304 303 305 306 308 309 310
299 301 301 302 304 307 311 312 313 313 310 311 308 311 308 307 307 307 310 310 309 308 306 306 306 307 308 308 308 311 306 305 307 306 303 302 306 303 302 303 304 305 306 307 309
297 300 300 302 307 309 311 310 312 310 303 305 304 306 306 310 309 308 310 310 310 309 306 308 307 307 308 309 307 308 305 306 307 305 306 304 304 304 302 304 303 303 306 307 308
296 298 300 301 304 307 311 311 311 310 310 308 303 305 306 306 307 308 310 309 309 308 307 307 307 306 307 306 306 304 306 305 303 303 305 304 303 304 302 304 305 303 306 307 308
296 297 298 301 303 306 310 306 310 310 303 303 302 304 305 306 307 308 310 308 310 309 309 308 307 306 306 307 307 306 304 307 305 305 307 302 302 303 302 300 304 303 306 308 309
297 296 297 299 301 305 305 307 309 299 300 303 304 304 305 306 307 308 308 309 308 307 305 310 310 306 304 306 308 306 304 307 306 307 306 302 305 307 303 302 303 305 307 308 308
297 296 296 298 300 302 303 310 308 298 303 304 304 303 304 306 306 308 307 309 309 308 309 309 310 305 304 304 306 308 308 305 306 296 305 305 304 303 300 302 303 301 304 307 308
296 295 295 297 299 300 301 307 301 301 303 303 306 302 299 302 305 306 307 308 309 309 307 310 310 304 304 305 305 305 304 306 304 306 307 306 304 307 306 303 300 300 302 306 308
295 295 295 296 299 300 301 304 300 303 304 305 305 299 303 302 301 305 306 307 308 310 309 310 309 306 305 305 306 306 305 304 304 305 309 308 307 302 304 303 301 301 303 306 308
295 293 295 297 300 300 301 299 303 303 305 304 304 304 303 302 304 304 306 307 307 308 311 309 311 312 307 303 303 304 305 304 307 307 304 305 307 304 301 302 300 302 304 305 308
295 295 296 298 299 300 296 297 302 304 304 304 304 305 303 303 304 304 304 305 306 308 309 309 309 314 312 309 302 303 303 303 303 303 306 309 310 301 301 301 302 303 304 305 306
294 293 294 297 298 295 292 298 301 303 304 304 304 305 304 304 299 302 305 303 304 307 309 309 309 312 314 310 308 305 303 304 305 306 307 307 308 308 305 302 301 302 304 305 306
294 291 293 293 296 297 298 298 298 301 303 305 304 305 305 303 303 301 303 303 304 309 308 308 310 309 311 307 305 304 305 306 306 306 307 310 308 309 306 304 301 304 304 304 305
293 291 295 292 293 295 297 297 298 300 303 303 304 305 306 307 306 304 303 303 305 304 310 307 311 305 311 309 306 308 307 304 304 305 306 306 306 304 304 303 302 305 304 304 305
294 293 294 293 294 292 294 294 297 298 299 299 302 304 306 305 306 306 306 305 305 305 307 306 306 306 311 300 305 310 309 307 308 302 305 306 308 306 305 302 303 304 305 306 307
Wind_Speed
9 11 11 11 9 6 6 5 4 4 4 5 5 3 1 2 4 4 4 3 3 4 5 7 9 9 7 4 3 4 4 2 5 7 3 7 4 5 3 4 6 6 8 7 8
8 10 10 9 10 9 7 6 5 5 4 5 5 5 3 2 3 6 5 4 3 5 7 10 10 9 5 4 2 4 3 7 4 4 3 7 5 7 4 5 6 11 15 12 10
13 11 11 10 7 9 10 9 7 5 5 4 5 6 6 3 2 3 7 6 4 6 8 10 10 6 3 3 1 3 4 2 3 3 4 7 3 7 5 6 13 12 11 12 12
13 13 11 12 11 7 9 10 10 8 7 6 4 5 5 4 3 3 3 4 4 7 9 9 9 5 3 3 2 1 1 2 2 2 4 6 3 4 14 6 4 10 10 10 11
15 16 14 13 11 11 10 11 11 11 9 8 6 4 3 3 3 5 3 3 4 6 9 9 9 5 4 4 3 2 3 2 2 3 2 3 5 8 15 19 18 14 14 12 12
16 18 16 17 16 11 13 13 11 12 10 9 7 6 4 3 4 4 4 4 5 6 8 9 5 5 6 3 2 2 2 1 2 3 2 2 3 2 7 16 18 19 16 13 13
16 16 16 17 14 13 13 14 13 11 11 10 9 8 7 6 5 5 4 4 5 7 7 8 5 5 7 4 4 5 2 2 6 5 2 2 7 12 19 9 18 21 17 14 14
21 19 19 15 18 15 13 15 13 11 11 10 8 8 6 5 6 8 5 2 4 7 7 8 7 7 3 11 5 3 3 2 1 6 3 4 9 4 11 16 20 21 18 16 14
23 23 19 18 18 18 17 14 13 13 13 11 9 5 6 4 5 7 6 4 4 6 6 9 9 4 6 5 4 6 2 3 5 9 3 5 7 2 4 14 20 21 20 17 15
11 22 20 17 16 14 14 13 13 14 12 9 11 7 8 5 5 6 7 6 4 9 7 5 4 4 3 4 5 5 4 4 5 2 2 3 17 11 14 13 23 24 22 21 18
8 14 15 21 18 15 14 9 8 5 10 8 1 3 2 5 6 7 9 9 7 6 4 1 3 8 9 7 3 5 3 3 3 1 3 7 13 16 15 17 26 31 30 25 20
10 10 11 11 14 16 13 7 4 3 7 11 18 18 10 9 4 11 12 7 4 4 5 3 7 4 4 6 4 3 2 4 2 1 2 3 15 15 8 12 29 31 34 31 23
14 11 11 12 13 13 14 12 8 8 3 9 16 19 19 19 10 15 17 9 3 4 6 6 3 3 8 5 6 4 5 4 4 2 3 6 9 6 2 8 18 27 32 31 26
15 12 8 7 10 14 14 10 9 5 2 6 7 8 13 12 6 9 15 11 2 9 5 6 2 5 4 5 6 4 6 4 3 2 4 2 5 7 4 7 7 19 28 31 29
14 14 10 10 5 11 10 13 9 5 2 3 4 3 10 10 9 3 20 10 10 5 6 6 5 4 3 5 8 4 5 5 2 2 2 1 1 8 3 7 10 11 24 28 26
8 13 11 13 15 11 15 17 13 3 10 3 4 5 6 2 2 6 5 7 6 5 2 2 2 3 2 3 2 8 6 6 4 2 2 4 6 5 5 7 5 4 22 26 27
8 12 14 12 12 15 15 19 4 6 3 5 5 5 3 4 4 3 6 4 6 5 4 1 3 1 2 5 3 3 5 2 3 2 6 0 2 9 6 7 5 7 21 27 28
12 12 17 17 17 11 26 4 7 6 8 2 4 4 6 5 3 3 10 7 8 4 2 8 5 8 5 5 7 6 5 5 7 4 3 2 7 7 5 5 12 5 16 26 28
10 12 16 18 17 17 15 14 14 7 8 9 3 5 3 3 5 4 7 9 11 14 7 4 5 0 1 2 4 6 6 3 5 2 3 4 8 11 6 7 3 9 14 28 32
8 10 16 18 19 14 5 14 6 5 6 4 10 5 9 7 6 7 10 7 7 20 12 2 3 1 1 2 1 3 3 2 2 2 4 4 6 6 5 8 8 8 18 30 32
7 3 4 17 16 9 5 7 4 4 3 6 8 5 6 7 6 6 8 2 13 18 22 1 4 3 2 6 7 2 2 2 1 4 5 1 6 7 6 7 12 13 27 33 37
5 2 7 11 8 4 10 6 2 5 10 4 4 4 8 9 6 6 11 4 14 16 13 11 2 4 6 2 1 1 5 6 4 5 3 1 7 3 6 5 9 15 24 29 36
4 6 9 15 7 12 2 3 4 4 4 5 6 4 4 8 3 7 7 3 16 12 17 11 5 2 1 2 1 4 5 3 1 2 6 5 5 1 1 4 4 14 21 26 33
3 2 7 13 11 3 2 9 4 13 12 5 3 4 4 5 2 7 7 2 4 5 21 22 4 7 12 1 2 6 7 13 7 4 5 9 6 5 4 6 5 11 19 27 33
7 5 4 3 9 12 2 2 9 10 15 8 4 10 8 3 2 4 2 3 4 6 8 9 7 7 13 1 1 4 6 11 21 20 10 9 19 15 11 4 7 12 18 24 31
9 4 3 3 4 6 12 13 12 5 7 9 21 13 6 13 15 7 6 4 5 1 4 4 1 4 8 14 7 7 11 12 17 23 21 21 24 6 11 5 6 12 20 31 37
21 18 8 6 2 3 9 6 8 10 13 11 10 13 16 22 16 12 21 18 13 10 6 7 5 4 3 1 3 9 24 20 15 8 16 23 28 4 8 10 17 19 22 30 39
Wind_Direction
323 340 356 7 2 357 345 337 331 334 332 330 317 297 251 248 244 244 222 192 210 201 181 169 166 167 166 160 139 139 70 206 225 164 205 167 160 177 202 217 204 216 235 260 270
311 322 334 356 9 3 354 341 330 325 330 326 319 306 288 237 230 237 233 206 207 191 177 169 167 165 163 156 143 106 129 222 184 189 189 181 185 178 190 216 234 241 245 250 272
292 297 311 324 349 3 8 357 338 325 318 321 320 311 306 273 191 214 219 228 209 188 174 171 169 169 148 149 158 142 197 188 203 229 207 167 211 183 189 239 226 228 257 244 271
261 275 287 302 318 330 344 357 351 331 321 317 321 320 306 284 175 149 183 224 208 184 177 171 173 163 124 160 155 198 249 194 181 180 151 160 182 225 215 227 240 250 250 247 272
248 258 269 282 291 316 320 331 343 340 323 319 320 325 297 247 235 184 174 206 209 184 187 187 177 163 165 135 137 156 189 178 204 192 207 188 226 238 250 245 251 251 244 256 275
247 248 259 269 278 284 308 316 318 335 331 321 322 320 284 208 227 226 225 207 200 189 188 186 199 184 124 102 138 123 127 160 207 211 221 234 263 259 261 232 233 237 241 253 273
240 250 254 251 263 271 283 297 307 300 328 328 328 321 279 245 207 226 232 215 201 191 189 184 183 175 146 105 108 112 354 302 212 205 218 212 280 234 243 221 225 234 241 251 269
236 229 242 256 254 262 277 276 288 297 290 315 319 313 272 235 226 221 204 221 210 192 188 182 166 138 98 121 51 57 55 330 164 160 171 149 265 253 233 220 230 236 242 250 263
240 233 235 233 257 255 257 269 277 286 290 283 300 315 273 247 227 209 207 196 173 170 162 165 164 112 122 93 23 17 225 214 306 201 130 173 271 284 218 215 238 240 241 249 259
289 240 232 242 240 243 250 268 266 280 283 277 262 292 243 235 186 175 171 159 151 156 147 163 124 85 52 108 218 201 217 239 250 205 194 217 262 271 258 232 241 243 244 248 255
275 247 255 243 234 248 242 291 278 273 240 223 245 256 162 181 163 156 162 148 132 154 160 139 127 210 193 181 123 126 191 234 223 172 222 236 268 268 259 237 244 245 243 243 248
269 276 270 254 233 255 229 244 254 301 308 265 250 249 230 213 231 169 162 138 154 187 122 48 237 176 131 163 147 129 164 253 302 129 189 336 281 264 224 228 230 233 238 236 239
250 256 269 264 234 240 233 221 262 318 282 276 244 238 231 222 224 192 168 147 152 173 196 175 229 158 144 156 163 195 186 206 211 351 234 315 287 297 271 244 245 239 240 238 235
245 243 266 261 230 237 230 215 226 281 309 255 222 228 212 200 253 194 189 144 183 208 175 241 213 145 143 184 145 194 198 158 140 59 244 29 279 299 279 283 239 238 228 227 225
242 239 231 213 194 196 192 200 205 165 334 237 168 179 170 192 140 129 170 166 147 208 144 242 182 174 167 203 162 223 123 131 106 120 353 247 273 271 342 284 248 224 224 217 211
248 244 233 229 227 196 188 177 187 110 238 201 135 169 135 191 91 113 152 126 110 126 299 263 290 217 204 83 139 152 80 55 57 67 327 222 174 269 215 215 288 232 217 203 194
243 237 242 230 230 210 183 164 177 196 309 227 182 170 167 155 126 139 152 143 157 118 228 342 229 250 166 89 53 89 103 24 348 358 225 64 155 257 252 224 217 227 209 191 190
231 263 238 231 217 217 175 178 205 232 205 141 119 105 175 151 200 134 144 165 240 100 152 183 260 172 188 196 173 189 172 161 201 200 251 81 236 246 216 240 222 246 213 190 192
251 262 251 232 226 220 199 207 209 186 167 140 81 105 220 230 140 136 180 179 188 193 171 188 241 323 82 143 144 184 204 166 106 48 47 214 280 287 213 235 190 212 198 195 194
286 272 258 229 223 214 236 232 217 195 127 155 173 155 177 197 155 167 174 197 186 197 173 293 277 8 28 95 52 173 176 112 14 182 246 264 277 242 267 224 204 207 211 200 197
261 262 260 218 215 215 219 221 255 263 196 160 199 145 191 183 165 198 200 300 191 175 177 276 160 325 186 193 181 162 210 225 175 171 182 254 259 220 240 223 205 206 209 200 198
217 223 243 207 203 205 228 187 279 257 216 266 127 132 171 165 165 209 202 243 183 152 179 195 1 229 213 62 329 291 230 188 159 206 223 170 265 226 228 270 203 211 206 203 200
228 242 250 200 226 224 314 259 235 320 232 201 216 186 178 171 161 207 185 197 166 155 159 150 206 179 125 317 1 226 201 231 132 78 206 168 256 47 254 288 248 208 204 202 199
227 253 231 224 255 213 143 250 271 228 255 276 232 143 142 186 283 195 193 158 206 165 152 154 167 210 229 73 122 187 200 198 193 203 191 225 292 297 257 253 237 220 211 201 201
212 234 223 224 244 243 226 246 238 239 226 186 217 241 189 191 88 185 136 85 36 147 130 156 191 200 248 219 224 215 231 210 217 225 212 239 230 240 271 244 248 229 208 205 207
201 193 220 262 290 199 229 240 252 301 225 225 231 238 246 242 232 202 133 182 184 174 135 150 200 149 244 227 204 245 252 225 231 235 250 262 269 221 278 279 224 218 210 211 213
234 222 239 253 241 205 247 212 231 219 246 258 271 244 239 237 235 239 204 192 170 160 162 158 153 141 253 343 173 256 234 235 235 205 212 232 245 261 260 238 243 226 218 223 223